Zurück zum Katalog

THOR ABLESTAR DEB

AktivLEO
NORAD 299·DEBRIS·🇺🇸 United States

Gestartet Jun 29, 1961 von Cape Canaveral Space Force Station

Loading…

Nächste Überflüge (nächste 24 Stunden)

TLE

AktuellSource: Space-Track

Epoche: Sep 5, 2026, 06:43 UTC

1 00299U 61015CQ  26248.28014548 -.00000005  00000-0  65525-4 0  9990
2 00299  67.1666 208.2528 0197951 239.3697 118.7725 13.69045418240022

Verfolge THOR ABLESTAR DEB in Echtzeit mit AllMySat

Download on the App Store